Flag for Germany Weather past 2 weeks in Waren (Müritz), Mecklenburg-Western Pomerania, Germany

Now
59 °F

Partly sunny.


Feels Like: 55 °F
Forecast: 49 / 56 °F
Wind: 20 mph from West

Location: Laage

Current Time: Oct 20, 2014 at 1:25:06 PM

Latest Report: Oct 20, 2014 at 12:20 PM


Visibility: N/A

Pressure: 29.83 "Hg

Humidity: 77%

Dew point: 52 °F

Location of Waren (Müritz)Location

Historic Weather in Waren (Müritz) — Graph

°F

Waren (Müritz) temperature yesterday

Maximum temperature yesterday: 70 °F (at 2:20 PM)
Minimum temperature yesterday: 55 °F (at 6:20 AM)
Average temperature yesterday: 62 °F

Past Weeks' High & Low Weather Summary

 TemperatureHumidityPressure
High70 °F (Oct 19, 2:20 PM)100% (Oct 9, 5:20 AM)30.18 "Hg (Oct 9, 5:20 AM)
Low43 °F (Oct 6, 6:20 AM)55% (Oct 6, 3:20 PM)29.59 "Hg (Oct 7, 4:50 PM)
Average55 °F90%29.85 "Hg
* Reported Oct 5 12:20 PM — Oct 20 12:20 PM, Waren (Müritz), Weather by CustomWeather, © 2014

Note: Actual official high and low records may vary slightly from our data, if they occured in-between our weather recording intervals... More about our weather records

Advertising

Waren (Müritz) weather history for previous 24 hours

 ConditionsComfort  
Time TempWeatherWind HumidityBarometerVisibility
12:20 PM
Oct 20
59 °FPartly sunny.20 mph77%29.83 "HgN/A
11:20 AM57 °FPartly sunny.16 mph88%29.80 "HgN/A
10:20 AM55 °FBroken clouds.10 mph94%29.80 "HgN/A
9:20 AM55 °FLight rain. Partly sunny.12 mph94%29.77 "HgN/A
9:01 AM55 °FRain. Fog.12 mph94%29.77 "Hg3 mi
8:45 AM55 °FRain. Fog.12 mph94%29.77 "Hg2 mi
8:20 AM55 °FRain. Fog.13 mph94%29.77 "Hg3 mi
7:20 AM57 °FLight rain. Partly cloudy.13 mph82%29.77 "HgN/A
5:20 AM57 °FPartly cloudy.13 mph88%29.77 "HgN/A
4:20 AM57 °FPassing clouds.12 mph88%29.77 "HgN/A
3:20 AM57 °FPassing clouds.9 mph88%29.80 "HgN/A
2:20 AM57 °FPassing clouds.10 mph88%29.80 "HgN/A
1:20 AM57 °FPassing clouds.10 mph88%29.80 "HgN/A
12:20 AM59 °FPassing clouds.9 mph82%29.80 "HgN/A
11:20 PM
Oct 19
59 °FPassing clouds.15 mph82%29.80 "HgN/A
10:20 PM61 °FPassing clouds.13 mph88%29.80 "HgN/A
9:20 PM61 °FPassing clouds.13 mph94%29.80 "HgN/A
8:20 PM63 °FPassing clouds.10 mph88%29.80 "HgN/A
7:20 PM63 °FPassing clouds.9 mph100%29.80 "HgN/A
7:01 PM63 °FHeavy rain. Fog.20 mph94%29.80 "Hg2 mi
6:53 PM64 °FRain. Fog.10 mph88%29.80 "Hg1 mi
6:20 PM68 °FPartly sunny.7 mph73%29.77 "HgN/A
5:20 PM68 °FBroken clouds.10 mph78%29.80 "HgN/A
4:20 PM70 °FBroken clouds.13 mph73%29.80 "HgN/A
3:20 PM70 °FScattered clouds.13 mph73%29.83 "HgN/A
2:20 PM70 °FScattered clouds.12 mph73%29.86 "HgN/A
1:20 PM68 °FScattered clouds.12 mph73%29.89 "HgN/A
Weather by CustomWeather, © 2014

See weather overviewHow to use our weather pages